Hayward, WI

10:25 PM CDT on July 20, 2017 (GMT -0500)
Sawyer County

Weather History for KHYR - October, 2012

Change the Weather History Date:

Wednesday, October 3, 2012

  Actual Average Record
Temperature  
Mean Temperature 53 °F -  
Max Temperature 75 °F 67 °F 82 °F (1997)
Min Temperature 33 °F 37 °F 21 °F (1999)
Degree Days  
Heating Degree Days 12    
Growing Degree Days 3 (Base 50)    
Moisture  
Dew Point 39 °F    
Average Humidity 65    
Maximum Humidity 93    
Minimum Humidity 27    
Precipitation  
Precipitation 0.00 in - - ()
Sea Level Pressure  
Sea Level Pressure 29.94 in    
Wind  
Wind Speed 1 mph (SSE)    
Max Wind Speed 7 mph    
Max Gust Speed -    
Visibility 10 miles    
Events      
Averages and records for this station are not official NWS values.
T = Trace of Precipitation, MM = Missing Value Source: NWS Daily Summary

Daily Weather History Graph

Daily Weather History Graph

Search for Another Location

Airport or City:

Trip Planner

Search our weather history database for the weather conditions in past years. The results will help you decide how hot, cold, wet, or windy it might be!

Date:

Astronomy

Oct. 03, 2012 Rise Set
Actual Time 7:07 AM CDT 6:40 PM CDT
Civil Twilight 6:37 AM CDT 7:10 PM CDT
Nautical Twilight 6:02 AM CDT 7:45 PM CDT
Astronomical Twilight 5:27 AM CDT 8:20 PM CDT
Moon 8:19 PM CDT (10/3) 10:44 AM CDT (10/3)
Length of Visible Light 12h 33m
Length of Day
11h 33m
Waning Gibbous, 88% of the Moon is Illuminated
Oct 3
Waning Gibbous
Oct 8
Last Quarter
Oct 15
New
Oct 21
First Quarter
Oct 29
Full

Hourly Weather History & Observations

Time (CDT) Temp. Dew Point Humidity Pressure Visibility Wind Dir Wind Speed Gust Speed Precip Events Conditions
12:53 AM 36.0 °F 33.1 °F 89% 29.94 in 10.0 mi Calm Calm - N/A   Clear
1:53 AM 35.1 °F 32.0 °F 89% 29.94 in 10.0 mi Calm Calm - N/A   Clear
2:53 AM 34.0 °F 32.0 °F 92% 29.94 in 10.0 mi Calm Calm - N/A   Clear
3:53 AM 34.0 °F 32.0 °F 92% 29.94 in 10.0 mi Calm Calm - N/A   Clear
4:53 AM 33.1 °F 30.9 °F 92% 29.94 in 10.0 mi Calm Calm - N/A   Clear
5:53 AM 34.0 °F 32.0 °F 92% 29.94 in 10.0 mi Calm Calm - N/A   Clear
6:53 AM 34.0 °F 30.9 °F 89% 29.96 in 10.0 mi Calm Calm - N/A   Clear
7:53 AM 36.0 °F 34.0 °F 93% 29.97 in 10.0 mi Calm Calm - N/A   Clear
8:53 AM 52.0 °F 45.0 °F 77% 29.97 in 10.0 mi Calm Calm - N/A   Clear
9:53 AM 61.0 °F 46.9 °F 60% 29.96 in 10.0 mi South 6.9 mph - N/A   Clear
10:53 AM 64.9 °F 46.9 °F 52% 29.96 in 10.0 mi SSE 5.8 mph - N/A   Clear
11:53 AM 69.1 °F 45.0 °F 42% 29.95 in 10.0 mi South 3.5 mph - N/A   Clear
12:53 PM 72.0 °F 42.1 °F 34% 29.94 in 10.0 mi South 6.9 mph - N/A   Clear
1:53 PM 73.0 °F 39.0 °F 29% 29.92 in 10.0 mi Calm Calm - N/A   Clear
2:53 PM 73.9 °F 37.9 °F 27% 29.91 in 10.0 mi Variable 4.6 mph - N/A   Clear
3:53 PM 73.9 °F 42.1 °F 32% 29.90 in 10.0 mi SE 6.9 mph - N/A   Clear
4:53 PM 73.9 °F 41.0 °F 30% 29.90 in 10.0 mi Calm Calm - N/A   Clear
5:53 PM 71.1 °F 41.0 °F 34% 29.92 in 10.0 mi SSE 6.9 mph - N/A   Clear
6:53 PM 60.1 °F 42.1 °F 51% 29.94 in 10.0 mi Calm Calm - N/A   Clear
7:53 PM 52.0 °F 43.0 °F 71% 29.95 in 10.0 mi Calm Calm - N/A   Clear
8:53 PM 48.0 °F 41.0 °F 77% 29.94 in 10.0 mi Calm Calm - N/A   Clear
10:53 PM 45.0 °F 39.9 °F 82% 29.94 in 10.0 mi Calm Calm - N/A   Clear
11:53 PM 53.1 °F 44.1 °F 71% 29.92 in 10.0 mi Calm Calm - N/A   Clear